SCP
0 0 0 0 0 -0 -0 0 0 0 0 0 0 0 -0 -0 -0 0 0 0 0 0 0 0 0 0 0 0 0 0 0 0 0 0 0 0 0 0 0 0 0 0 0 0 0 0 0 0 0
0 0 0 0 0 -0 -0 0 0 0 0 0 0 0 -0 -0 0 0 0 0 0 0 0 0 0 0 0 0 0 0 0 0 0 0 0 0 0 0 0 0 0 0 0 0 0 0 0 0 0
0 0 0 0 -0 0 -0 0 0 0 0 0 0 0 0 0 0 0 0 0 0 0 0 0 0 0 0 0 0 0 0 0 0 0 0 0 0 0 0 0 0 0 0 0 0 0 0 0 0
0 0 0 -0 -0 0 0 0 0 0 0 0 0 0 0 0 0 0 0 0 0 0 0 0 0 0 0 0 0 0 0 0 0 0 0 0 0 0 0 0 0 0 0 0 0 0 0 0 0
0 0 -0 -0 0 0 0 0 0 0 0 0 0 0 0 0 0 0 0 0 0 0 0 0 0 0 0 0 0 0 0 0 0 0 0 0 0 0 0 0 0 0 0 0 0 0 0 0 0
0 0 0 0 0 0 0 0 0 0 0 0 0 0 0 0 0 0 0 0 0 0 0 0 0 0 0 0 0 0 0 0 0 0 0 0 0 0 0 0 0 0 0 0 0 0 0 0 0
0 0 0 0 0 0 0 0 0 0 0 0 0 0 0 0 0 0 0 0 0 0 0 0 0 0 0 0 0 0 0 0 0 0 0 0 0 0 0 0 0 0 0 0 0 0 0 0 0
0 0 0 0 0 0 0 0 0 0 0 0 0 0 0 0 0 0 0 0 0 0 0 0 0 0 0 0 0 0 0 0 0 0 0 0 0 0 0 0 0 0 0 0 -0 -0 -0 0 0
0 0 0 0 0 0 0 0 0 0 0 0 0 0 0 0 0 0 0 0 0 0 0 0 0 0 0 0 0 0 0 0 0 0 0 0 0 0 0 0 0 0 0 0 -0 -0 -0 -0 -0
0 0 0 0 0 0 0 0 0 0 0 0 0 0 0 0 0 0 0 0 0 0 0 0 0 0 0 0 0 0 0 0 0 0 0 0 0 0 0 0 0 0 0 0 -0 -0 -0 -0 -0
0 0 0 0 0 0 0 0 0 0 0 0 0 0 0 0 0 0 0 0 0 1 1 0 0 0 0 0 0 0 0 0 0 0 0 0 0 0 0 0 0 0 0 0 -0 -0 -0 -0 -0
0 0 0 0 0 0 0 0 0 0 0 0 0 0 0 0 0 0 0 0 0 1 1 1 1 0 0 0 0 0 0 0 0 0 0 0 0 0 0 0 0 0 0 -0 -0 -0 -0 -0 -0
0 0 0 0 0 0 0 0 0 0 0 0 0 0 0 0 0 0 0 0 0 0 1 1 1 1 1 0 0 0 0 0 0 0 0 0 0 0 0 0 0 0 0 0 -0 -0 -0 -0 -0
0 0 0 0 0 0 0 0 0 0 0 0 0 0 0 0 0 0 0 0 0 0 0 1 1 1 1 1 1 1 0 0 0 0 0 0 0 0 0 0 0 0 0 -0 -0 0 0 0 0
0 0 0 0 0 0 0 0 0 0 0 0 0 0 0 0 0 0 0 0 0 0 0 0 1 1 1 1 1 1 1 0 0 0 0 0 0 0 0 0 0 0 0 -0 -0 0 0 0 0
0 0 0 0 0 0 0 0 0 0 0 0 0 0 0 0 0 0 0 0 0 0 0 0 1 1 1 1 1 1 1 1 0 0 0 0 0 0 0 0 0 0 0 -0 0 0 0 0 0
0 0 0 0 0 0 0 0 0 0 0 0 0 0 0 0 0 0 0 0 0 0 0 0 1 1 1 1 1 1 1 1 1 0 0 0 0 0 0 0 0 0 0 0 0 0 0 0 0
0 0 0 0 0 0 0 0 0 0 0 0 0 0 0 0 0 0 0 0 0 0 0 0 1 1 1 1 1 1 1 1 1 1 0 0 0 0 0 0 0 0 0 0 0 0 0 0 0
0 0 0 0 0 0 0 0 0 0 0 0 0 0 0 0 0 0 0 0 0 0 0 0 0 1 1 1 1 1 1 1 1 1 1 0 0 0 0 0 0 0 0 0 0 0 0 0 0
0 0 0 0 0 0 0 0 0 0 0 0 0 0 0 0 0 0 0 0 0 0 0 0 0 1 1 1 1 1 1 1 1 1 1 0 0 0 0 0 0 0 0 0 0 0 0 0 0
0 0 0 0 0 0 0 0 0 0 0 0 0 0 0 0 0 0 0 0 0 0 0 0 0 0 1 1 1 1 1 1 1 1 1 0 0 0 0 0 0 0 0 0 0 0 0 0 0
0 0 0 0 0 0 0 0 0 0 0 0 0 0 0 0 0 0 0 0 0 0 0 0 0 0 0 1 1 1 1 1 1 1 1 1 0 0 0 0 0 0 0 0 0 0 0 0 0
0 0 0 0 0 0 0 0 0 0 0 0 0 0 0 0 0 0 0 0 0 0 0 0 0 0 0 0 1 1 1 1 1 1 1 1 0 0 0 0 0 0 0 0 0 0 0 0 0
0 0 0 0 0 0 0 0 0 0 0 0 0 0 0 0 0 0 0 0 0 0 0 0 0 0 0 0 0 0 1 1 1 1 1 1 0 0 0 0 0 0 0 0 0 0 0 0 0
0 0 0 0 0 0 0 0 0 0 0 0 0 0 0 0 0 0 0 0 0 0 0 0 0 0 0 0 0 0 0 1 1 1 1 1 0 0 0 0 0 0 0 0 0 0 0 0 0
0 0 0 0 0 0 0 0 0 0 0 0 0 0 0 0 0 0 0 0 0 0 0 0 0 0 0 0 0 0 0 0 0 0 0 0 0 0 0 0 0 0 0 0 0 0 0 0 0
0 0 0 0 0 0 0 0 0 0 0 0 0 0 0 0 0 0 0 0 0 0 0 0 0 0 0 0 0 0 0 0 0 0 0 0 0 0 0 0 0 0 0 0 0 0 0 0 0
0 0 0 0 0 0 0 0 0 0 0 0 0 0 0 0 0 0 0 0 0 0 0 0 0 0 0 0 0 0 0 0 0 0 0 0 0 0 0 0 0 0 0 0 0 0 0 0 0
0 0 0 0 0 0 0 0 0 0 0 0 0 0 0 0 0 0 0 0 0 0 0 0 0 0 0 0 0 0 0 0 0 0 0 0 0 0 0 0 0 0 0 0 0 0 0 0 0
0 0 0 0 0 0 0 0 0 0 0 0 0 0 0 0 0 0 0 0 0 0 0 0 0 0 0 0 0 0 0 0 0 0 0 0 0 0 0 0 0 0 0 0 0 0 0 0 0
Wind_Speed
4 2 2 2 6 6 2 1 2 3 3 4 8 9 7 5 3 5 5 13 14 12 10 12 14 14 13 13 12 12 12 12 12 12 11 11 11 11 10 10 10 10 9 9 8 8 8 8 7
2 0 2 4 6 4 0 1 3 3 5 7 8 7 7 5 6 9 7 13 16 13 10 11 15 14 13 12 12 12 12 12 12 11 11 11 10 10 10 10 9 9 9 9 8 8 8 7 7
2 1 2 4 3 4 3 2 4 3 5 5 5 5 5 5 7 6 10 16 14 12 9 11 15 14 13 12 12 12 11 11 11 11 10 10 10 10 9 9 9 8 8 8 7 7 7 6 6
1 3 4 4 2 4 4 3 4 5 5 5 6 6 4 3 6 10 17 16 14 12 10 11 15 14 13 12 12 11 11 11 11 10 10 10 9 9 9 8 8 8 7 7 7 6 6 5 5
3 4 5 3 1 0 1 3 5 6 4 5 7 6 3 3 13 19 17 15 14 11 10 11 15 14 13 13 12 12 11 11 11 10 10 9 9 8 8 8 7 7 7 6 6 5 5 5 4
4 5 5 3 4 3 3 4 8 9 6 7 8 6 2 6 13 16 15 14 14 13 11 11 15 15 14 13 12 12 11 11 11 11 10 9 9 8 8 7 7 6 6 5 5 4 4 4 3
4 4 3 2 2 3 2 3 7 7 6 5 7 6 3 5 10 13 14 13 12 12 11 9 9 11 14 14 13 12 12 11 11 11 11 10 9 8 8 7 7 6 5 5 4 3 2 3 2
4 5 4 4 3 3 4 3 4 6 4 5 6 8 6 8 9 11 12 12 11 10 10 9 8 8 7 8 13 13 13 12 12 12 11 11 10 9 9 8 7 6 6 5 4 3 2 2 1
5 6 2 2 3 5 5 5 5 6 6 4 4 5 8 11 10 10 9 8 9 10 9 9 9 8 8 7 11 12 13 12 12 10 12 10 5 5 5 7 8 7 6 5 5 4 3 2 1
5 4 3 3 3 4 5 3 2 6 7 5 5 5 9 10 9 10 12 12 12 12 11 10 10 10 8 8 7 5 6 6 6 5 6 5 4 4 6 7 10 9 8 7 6 6 4 2 1
4 5 5 5 6 4 2 3 4 5 4 1 5 8 9 7 7 8 10 12 13 13 12 12 11 11 10 7 6 4 3 4 5 6 6 5 4 4 4 3 5 5 6 3 4 4 2 2 2
3 3 5 4 4 2 1 2 5 6 2 1 6 8 8 6 5 4 5 8 9 11 13 13 13 11 11 8 7 6 5 5 5 6 7 5 4 4 4 4 4 3 2 3 3 2 3 3 3
3 2 4 4 4 1 4 5 5 6 5 8 11 10 8 6 3 3 3 2 2 6 9 11 13 13 11 9 7 8 7 7 7 6 7 8 6 6 5 4 4 4 3 4 3 3 4 4 3
2 1 1 2 1 3 6 6 7 6 7 12 12 10 8 7 7 7 7 5 3 1 4 6 10 11 10 9 9 8 8 7 7 7 8 10 7 7 6 6 5 5 5 5 4 5 4 4 3
1 2 5 5 3 2 6 9 9 8 10 14 12 11 11 10 10 8 7 5 4 4 3 3 7 9 10 10 10 8 8 7 7 8 9 10 9 8 8 7 6 6 6 5 4 4 3 3 3
5 4 3 5 5 4 7 4 8 8 12 13 11 11 10 10 10 8 8 7 7 6 6 4 4 6 8 8 9 7 7 7 7 7 7 10 10 9 8 7 7 7 5 4 4 3 3 3 3
6 3 2 4 7 5 7 4 7 10 13 13 12 11 10 11 13 13 12 9 7 7 7 6 5 3 5 7 6 6 6 7 6 6 6 7 9 9 7 6 6 6 5 4 5 3 3 3 3
2 1 3 4 5 8 10 7 10 13 15 14 13 12 12 12 11 12 13 12 10 8 7 7 6 4 3 3 3 3 4 5 5 6 6 7 6 8 7 6 6 6 4 4 3 4 3 3 3
3 4 3 2 4 7 9 10 12 13 15 15 14 13 13 12 11 11 12 12 11 11 10 9 8 7 4 1 2 4 5 5 5 5 6 6 6 6 6 5 5 5 5 5 5 3 3 2 2
6 5 3 3 4 5 8 11 9 12 13 12 12 13 14 14 15 14 13 13 12 11 10 10 9 8 6 3 3 3 4 3 4 3 3 4 5 6 6 6 5 6 5 5 4 4 3 2 2
4 3 1 2 4 4 6 6 9 8 10 13 14 12 12 14 14 14 14 13 12 11 11 10 10 9 8 5 2 1 1 1 2 3 3 4 5 6 5 6 6 6 6 5 5 5 5 3 1
2 2 2 2 2 2 3 2 6 9 11 16 16 14 14 14 13 12 13 12 12 11 10 10 10 9 8 6 2 2 3 4 4 4 4 4 4 5 5 6 6 6 5 6 5 5 4 5 3
4 6 3 1 3 3 6 5 5 8 11 16 15 15 14 14 13 12 12 12 11 11 10 9 9 9 8 7 4 1 1 2 3 3 4 4 3 4 5 6 6 6 5 6 6 5 5 4 4
4 5 6 6 6 4 5 4 5 7 10 14 14 15 15 15 13 11 11 11 10 11 10 10 9 9 9 8 5 2 0 1 3 3 3 3 2 3 4 5 6 6 5 6 6 6 6 5 4
9 7 6 8 6 1 2 5 2 5 7 9 12 14 14 13 11 12 12 11 11 12 11 10 10 9 9 8 7 4 2 1 2 2 4 3 2 2 4 4 4 4 5 5 5 5 5 5 5
4 6 5 2 1 1 3 3 2 4 6 7 8 10 12 12 11 11 11 10 10 11 11 11 10 9 9 8 6 5 4 2 1 1 1 2 2 2 3 4 4 4 5 5 5 4 5 5 6
4 3 3 5 2 2 2 1 3 5 8 9 10 11 11 11 11 11 11 10 10 11 11 10 10 10 9 8 6 6 5 4 3 2 1 1 1 2 3 3 3 3 4 5 5 4 5 4 5
3 2 5 5 3 1 1 1 4 8 9 10 10 10 11 11 10 10 10 10 9 8 8 9 9 9 9 9 7 6 6 5 4 3 3 2 1 0 2 2 2 3 3 4 4 3 4 4 4
6 5 5 4 3 3 0 2 3 5 6 8 9 9 9 9 9 9 8 8 8 7 7 8 8 8 9 9 8 8 7 7 6 5 5 3 2 1 0 2 2 3 3 3 3 3 4 4 4
3 2 3 3 1 2 2 4 4 5 6 6 7 8 8 8 8 8 8 8 8 8 7 7 7 7 7 8 8 8 8 7 7 6 5 4 4 2 1 1 1 2 2 2 3 3 4 4 4
Wind_Direction
290 291 124 79 54 55 94 165 110 63 48 58 77 85 85 64 88 134 143 146 139 147 151 150 149 144 140 137 134 131 129 126 122 118 115 111 109 108 105 104 103 102 100 99 100 102 102 100 100
313 321 105 61 81 81 298 195 103 105 127 114 85 86 84 73 85 107 124 144 143 147 150 151 151 148 145 142 139 136 133 129 126 123 119 115 112 110 109 107 104 104 102 102 102 104 106 105 102
257 184 88 68 106 151 181 202 143 113 107 100 85 62 80 111 114 124 143 144 143 148 150 154 154 151 149 146 144 141 138 135 132 130 126 123 119 116 113 110 107 106 106 105 104 106 109 108 104
78 55 52 72 139 203 175 175 135 103 68 64 91 63 52 123 131 134 141 145 146 149 150 157 156 156 155 153 152 149 145 142 140 137 134 131 128 124 121 116 112 110 110 111 108 109 112 113 110
83 70 47 42 42 59 103 124 106 94 83 76 88 82 41 47 120 135 145 148 148 149 153 161 161 161 161 160 160 157 153 152 151 147 143 141 139 135 131 126 120 116 114 113 111 110 118 121 117
54 59 62 39 2 28 59 96 94 96 111 115 106 103 93 123 132 146 150 152 151 153 158 163 166 166 167 167 167 165 163 163 161 157 154 152 151 148 143 137 132 126 122 121 118 115 124 134 132
86 71 58 28 10 31 58 87 100 110 116 138 127 105 132 158 154 152 154 152 153 157 160 164 168 170 173 173 173 173 172 172 170 166 165 164 163 161 158 154 152 148 143 142 142 142 144 147 141
107 84 40 9 10 346 330 24 98 109 110 126 117 128 166 192 163 149 151 151 155 160 165 167 170 170 172 176 180 179 179 180 178 176 174 174 174 174 173 171 172 171 168 169 174 186 191 186 172
79 73 54 340 345 308 329 28 30 64 78 59 75 141 167 165 152 142 145 150 160 168 173 174 176 177 175 177 187 184 184 186 185 184 184 180 177 180 182 188 190 189 187 190 201 216 232 240 262
84 107 193 222 201 264 312 13 41 69 60 47 55 81 134 153 158 159 162 169 175 179 183 182 184 184 181 187 184 181 185 184 183 182 185 174 176 194 198 206 204 201 200 206 217 231 246 259 297
107 150 185 227 214 231 298 6 29 90 63 92 151 142 143 156 168 176 177 181 185 185 187 187 189 186 184 189 179 183 182 179 185 188 188 180 184 200 208 202 212 211 209 214 233 246 256 262 267
95 154 176 219 229 232 243 79 52 53 58 94 134 136 135 139 158 178 188 188 189 187 194 192 191 189 189 188 184 184 186 188 194 197 193 187 190 198 198 196 200 202 204 207 220 232 246 255 254
90 178 204 226 229 225 62 63 78 35 30 70 82 81 82 87 88 75 59 59 178 194 201 196 194 192 191 188 186 187 193 195 198 197 197 194 193 195 193 196 199 207 206 206 210 220 229 235 237
203 210 304 329 347 31 70 45 49 14 39 64 70 67 58 56 49 38 29 21 9 276 226 209 200 195 191 190 191 191 194 196 196 200 201 197 195 193 191 196 199 208 212 210 204 206 207 211 194
337 16 5 0 18 43 82 41 21 6 49 57 52 52 48 41 38 34 21 10 353 331 306 249 214 203 198 197 196 194 194 194 198 203 203 200 196 192 191 196 201 207 210 209 200 196 190 183 166
23 38 9 350 15 18 80 56 6 13 51 49 41 40 37 29 25 18 16 14 4 349 338 321 269 221 213 209 203 200 195 193 199 202 201 202 199 193 186 191 198 200 195 193 185 172 160 157 152
28 28 351 350 15 34 71 68 16 29 49 43 33 29 28 23 18 12 8 5 2 354 343 335 316 282 236 223 205 196 193 193 193 192 195 201 200 193 181 185 189 183 176 179 179 163 150 150 159
342 5 5 13 15 65 76 67 40 36 47 39 27 20 19 19 10 4 2 360 358 356 351 339 331 318 291 241 214 194 189 190 187 187 190 190 195 192 178 177 176 165 157 159 154 153 145 150 159
91 81 50 28 32 73 79 69 47 34 38 31 22 14 8 2 356 0 0 358 358 359 356 348 341 333 330 280 218 203 198 191 187 194 195 187 184 184 175 170 164 160 158 159 151 139 139 138 134
64 66 18 338 17 84 91 71 52 40 35 27 18 7 360 355 355 356 357 357 354 351 350 350 344 334 325 299 255 222 201 187 183 184 195 189 176 176 178 166 166 161 150 150 148 138 133 133 133
42 92 27 319 4 57 103 51 18 12 22 18 16 5 357 354 348 347 350 349 348 349 350 347 339 335 329 310 273 238 133 118 163 181 192 200 182 171 169 170 164 162 157 163 164 153 143 148 140
321 282 287 292 42 345 65 86 6 345 360 6 2 356 349 345 342 343 344 343 345 343 343 342 340 340 338 332 293 202 197 198 200 193 188 188 188 173 174 172 169 170 166 164 173 163 150 145 159
280 288 288 263 124 49 25 85 350 344 357 352 350 348 344 340 340 343 343 338 339 341 344 343 345 346 346 349 339 260 202 203 185 175 179 182 188 186 185 178 176 179 176 175 175 166 161 159 164
340 14 39 51 70 52 348 81 9 353 338 335 342 345 344 341 344 346 347 346 343 348 349 349 350 351 351 355 356 4 90 161 160 171 186 187 186 191 192 185 189 191 183 184 182 178 173 172 172
30 52 35 22 30 20 31 76 23 319 332 332 334 338 343 350 354 353 355 355 350 351 353 353 353 353 354 359 4 9 27 74 149 173 184 185 186 202 200 188 191 191 186 183 176 175 179 179 182
15 91 116 135 218 293 30 70 266 312 330 333 335 337 346 355 356 358 357 354 351 352 353 354 357 356 357 2 6 14 29 37 43 61 134 176 197 208 205 195 192 187 187 188 183 181 193 190 194
23 24 146 132 82 70 31 360 295 332 344 346 347 347 350 349 350 353 353 353 352 354 355 355 359 1 2 3 11 23 27 34 32 29 52 92 187 202 193 198 192 189 193 188 183 195 203 194 197
60 66 57 70 90 53 2 339 310 322 330 331 337 339 338 341 345 348 348 347 348 349 350 358 2 4 4 10 19 27 21 25 28 32 28 10 334 233 188 191 195 201 197 193 187 193 201 195 194
13 28 58 81 117 132 241 284 248 269 291 306 317 324 330 337 339 340 342 339 340 345 353 -0 0 5 8 11 15 20 17 20 26 28 17 2 346 5 135 191 203 201 192 189 181 190 189 189 188
61 54 103 112 45 111 145 265 265 253 274 287 302 315 325 329 331 334 336 338 341 347 352 356 356 1 4 8 14 18 17 20 24 22 15 17 19 14 35 81 175 181 169 160 165 182 181 179 182